Time,TemperatureF,DewpointF,PressureIn,WindDirection,WindDirectionDegrees,WindSpeedMPH,WindSpeedGustMPH,Humidity,HourlyPrecipIn,Conditions,Clouds,dailyrainin,SoftwareType,DateUTC
2013-01-13 00:01:00,56.8,56.2,30.11,NE,49,3.0,3.0,98,0.00,,,0.00,Wunderground v.1.15,2013-01-13 05:01:00,
2013-01-13 00:03:00,56.7,56.1,30.11,NE,49,3.0,5.0,98,0.00,,,0.00,Wunderground v.1.15,2013-01-13 05:03:00,
2013-01-13 00:08:00,56.7,56.1,30.11,NE,49,2.0,6.0,98,0.00,,,0.00,Wunderground v.1.15,2013-01-13 05:08:00,
2013-01-13 00:13:00,56.6,56.0,30.11,NE,49,4.0,6.0,98,0.00,,,0.00,Wunderground v.1.15,2013-01-13 05:13:00,
2013-01-13 00:18:00,56.5,55.9,30.10,NE,49,1.0,6.0,98,0.00,,,0.00,Wunderground v.1.15,2013-01-13 05:18:00,
2013-01-13 00:23:00,56.4,55.8,30.10,NE,49,3.0,5.0,98,0.00,,,0.00,Wunderground v.1.15,2013-01-13 05:23:00,
2013-01-13 00:28:00,56.3,55.7,30.10,NE,49,2.0,5.0,98,0.00,,,0.00,Wunderground v.1.15,2013-01-13 05:28:00,
2013-01-13 00:33:00,56.0,55.4,30.11,NE,49,2.0,4.0,98,0.00,,,0.00,Wunderground v.1.15,2013-01-13 05:33:00,
2013-01-13 00:38:00,55.9,55.3,30.11,NE,49,5.0,5.0,98,0.00,,,0.00,Wunderground v.1.15,2013-01-13 05:38:00,
2013-01-13 00:43:00,55.5,54.9,30.11,NE,49,2.0,6.0,98,0.00,,,0.00,Wunderground v.1.15,2013-01-13 05:43:00,
2013-01-13 00:48:00,55.3,54.7,30.11,NE,49,2.0,6.0,98,0.00,,,0.00,Wunderground v.1.15,2013-01-13 05:48:00,
2013-01-13 00:53:00,55.1,54.5,30.11,NE,49,2.0,5.0,98,0.00,,,0.00,Wunderground v.1.15,2013-01-13 05:53:00,
2013-01-13 00:58:00,55.0,54.4,30.11,NE,49,2.0,5.0,98,0.00,,,0.00,Wunderground v.1.15,2013-01-13 05:58:00,
2013-01-13 01:03:00,55.1,54.5,30.11,NE,49,3.0,5.0,98,0.00,,,0.00,Wunderground v.1.15,2013-01-13 06:03:00,
2013-01-13 01:08:00,55.1,54.5,30.11,NE,49,1.0,5.0,98,0.00,,,0.00,Wunderground v.1.15,2013-01-13 06:08:00,
2013-01-13 01:13:00,55.0,54.4,30.11,NE,49,1.0,3.0,98,0.00,,,0.00,Wunderground v.1.15,2013-01-13 06:13:00,
2013-01-13 01:18:00,55.0,54.4,30.11,NE,49,0.0,3.0,98,0.00,,,0.00,Wunderground v.1.15,2013-01-13 06:18:00,
2013-01-13 01:23:00,55.0,54.4,30.11,NE,49,2.0,4.0,98,0.00,,,0.00,Wunderground v.1.15,2013-01-13 06:23:00,
2013-01-13 01:28:00,54.9,54.3,30.11,NE,49,1.0,4.0,98,0.00,,,0.00,Wunderground v.1.15,2013-01-13 06:28:00,
2013-01-13 01:33:00,54.8,54.2,30.11,NE,49,1.0,3.0,98,0.00,,,0.00,Wunderground v.1.15,2013-01-13 06:33:00,
2013-01-13 01:38:00,54.6,54.0,30.11,NE,49,1.0,4.0,98,0.00,,,0.00,Wunderground v.1.15,2013-01-13 06:38:00,
2013-01-13 01:43:00,54.5,53.9,30.11,NE,49,3.0,3.0,98,0.00,,,0.00,Wunderground v.1.15,2013-01-13 06:43:00,
2013-01-13 01:48:00,54.4,53.8,30.11,NE,49,4.0,4.0,98,0.00,,,0.00,Wunderground v.1.15,2013-01-13 06:48:00,
2013-01-13 01:53:00,54.1,53.5,30.12,NE,49,3.0,5.0,98,0.00,,,0.00,Wunderground v.1.15,2013-01-13 06:53:00,
2013-01-13 01:58:00,53.9,53.3,30.12,NE,49,0.0,5.0,98,0.00,,,0.00,Wunderground v.1.15,2013-01-13 06:58:00,
2013-01-13 02:03:00,53.8,53.2,30.12,NE,49,5.0,5.0,98,0.00,,,0.01,Wunderground v.1.15,2013-01-13 07:03:00,
2013-01-13 02:08:00,53.5,52.9,30.12,NE,49,3.0,7.0,98,0.00,,,0.01,Wunderground v.1.15,2013-01-13 07:08:00,
2013-01-13 02:13:00,53.4,52.8,30.12,NE,49,4.0,6.0,98,0.00,,,0.01,Wunderground v.1.15,2013-01-13 07:13:00,
2013-01-13 02:18:00,53.3,52.8,30.12,NE,49,4.0,7.0,98,0.00,,,0.01,Wunderground v.1.15,2013-01-13 07:18:00,
2013-01-13 02:23:00,53.3,52.8,30.12,NE,49,7.0,7.0,98,0.00,,,0.01,Wunderground v.1.15,2013-01-13 07:23:00,
2013-01-13 02:28:00,53.4,52.8,30.12,NE,49,5.0,7.0,98,0.00,,,0.01,Wunderground v.1.15,2013-01-13 07:28:00,
2013-01-13 02:33:00,53.4,52.8,30.12,NE,49,5.0,5.0,98,0.00,,,0.01,Wunderground v.1.15,2013-01-13 07:33:00,
2013-01-13 02:38:00,53.5,52.9,30.12,NE,49,3.0,5.0,98,0.00,,,0.01,Wunderground v.1.15,2013-01-13 07:38:00,
2013-01-13 02:43:00,53.4,52.8,30.11,NE,49,4.0,7.0,98,0.00,,,0.01,Wunderground v.1.15,2013-01-13 07:43:00,
2013-01-13 02:48:00,53.4,52.8,30.11,NE,49,3.0,7.0,98,0.00,,,0.01,Wunderground v.1.15,2013-01-13 07:48:00,
2013-01-13 02:53:00,53.4,52.8,30.12,NE,49,3.0,5.0,98,0.00,,,0.01,Wunderground v.1.15,2013-01-13 07:53:00,
2013-01-13 02:58:00,53.4,52.8,30.12,NE,49,3.0,5.0,98,0.00,,,0.01,Wunderground v.1.15,2013-01-13 07:58:00,
2013-01-13 03:03:00,53.4,52.8,30.11,NE,49,4.0,5.0,98,0.00,,,0.01,Wunderground v.1.15,2013-01-13 08:03:00,
2013-01-13 03:08:00,53.4,52.8,30.11,NE,49,3.0,5.0,98,0.00,,,0.01,Wunderground v.1.15,2013-01-13 08:08:00,
2013-01-13 03:13:00,53.3,52.8,30.11,NE,49,5.0,6.0,98,0.00,,,0.01,Wunderground v.1.15,2013-01-13 08:13:00,
2013-01-13 03:18:00,53.2,52.7,30.11,NE,49,3.0,6.0,98,0.00,,,0.01,Wunderground v.1.15,2013-01-13 08:18:00,
2013-01-13 03:23:00,53.1,52.6,30.11,NE,49,4.0,6.0,98,0.00,,,0.01,Wunderground v.1.15,2013-01-13 08:23:00,
2013-01-13 03:28:00,53.0,52.5,30.11,NE,49,4.0,6.0,98,0.00,,,0.01,Wunderground v.1.15,2013-01-13 08:28:00,
2013-01-13 03:33:00,53.0,52.5,30.11,NE,49,3.0,5.0,98,0.00,,,0.01,Wunderground v.1.15,2013-01-13 08:33:00,
2013-01-13 03:38:00,53.0,52.5,30.10,NE,49,2.0,5.0,98,0.00,,,0.01,Wunderground v.1.15,2013-01-13 08:38:00,
2013-01-13 03:43:00,53.1,52.8,30.10,NE,49,1.0,4.0,99,0.00,,,0.01,Wunderground v.1.15,2013-01-13 08:43:00,
2013-01-13 03:48:00,53.3,53.0,30.10,NE,49,3.0,4.0,99,0.00,,,0.01,Wunderground v.1.15,2013-01-13 08:48:00,
2013-01-13 03:53:00,53.4,52.8,30.10,NE,49,2.0,4.0,98,0.00,,,0.01,Wunderground v.1.15,2013-01-13 08:53:00,
2013-01-13 03:58:00,53.5,52.9,30.10,NE,49,1.0,4.0,98,0.00,,,0.01,Wunderground v.1.15,2013-01-13 08:58:00,
2013-01-13 04:03:00,53.5,52.9,30.10,NE,49,0.0,3.0,98,0.00,,,0.01,Wunderground v.1.15,2013-01-13 09:03:00,
2013-01-13 04:08:00,53.5,52.9,30.10,NE,49,3.0,4.0,98,0.00,,,0.01,Wunderground v.1.15,2013-01-13 09:08:00,
2013-01-13 04:13:00,53.5,52.9,30.10,NE,49,2.0,5.0,98,0.00,,,0.01,Wunderground v.1.15,2013-01-13 09:13:00,
2013-01-13 04:18:00,53.6,53.0,30.09,NE,49,3.0,5.0,98,0.00,,,0.01,Wunderground v.1.15,2013-01-13 09:18:00,
2013-01-13 04:23:00,53.6,53.0,30.09,NE,49,3.0,5.0,98,0.00,,,0.01,Wunderground v.1.15,2013-01-13 09:23:00,
2013-01-13 04:28:00,53.5,52.9,30.09,NE,49,2.0,5.0,98,0.00,,,0.01,Wunderground v.1.15,2013-01-13 09:28:00,
2013-01-13 04:33:00,53.5,52.9,30.09,NE,49,4.0,4.0,98,0.00,,,0.01,Wunderground v.1.15,2013-01-13 09:33:00,
2013-01-13 04:38:00,53.6,53.0,30.09,NE,49,1.0,4.0,98,0.00,,,0.01,Wunderground v.1.15,2013-01-13 09:38:00,
2013-01-13 04:43:00,53.6,53.0,30.09,NE,49,3.0,3.0,98,0.00,,,0.01,Wunderground v.1.15,2013-01-13 09:43:00,
2013-01-13 04:48:00,53.6,53.0,30.09,NE,49,0.0,4.0,98,0.00,,,0.01,Wunderground v.1.15,2013-01-13 09:48:00,
2013-01-13 04:53:00,53.6,53.0,30.09,NE,49,1.0,4.0,98,0.00,,,0.01,Wunderground v.1.15,2013-01-13 09:53:00,
2013-01-13 04:58:00,53.6,53.0,30.09,NE,49,0.0,4.0,98,0.00,,,0.01,Wunderground v.1.15,2013-01-13 09:58:00,
2013-01-13 05:03:00,53.6,53.0,30.09,NE,49,3.0,4.0,98,0.00,,,0.01,Wunderground v.1.15,2013-01-13 10:03:00,
2013-01-13 05:08:00,53.5,52.9,30.10,NE,49,2.0,4.0,98,0.00,,,0.01,Wunderground v.1.15,2013-01-13 10:08:00,
2013-01-13 05:13:00,53.5,52.9,30.10,NE,49,2.0,4.0,98,0.00,,,0.01,Wunderground v.1.15,2013-01-13 10:13:00,
2013-01-13 05:18:00,53.4,52.8,30.10,NE,49,3.0,4.0,98,0.00,,,0.01,Wunderground v.1.15,2013-01-13 10:18:00,
2013-01-13 05:23:00,53.3,52.8,30.10,NE,49,1.0,4.0,98,0.00,,,0.01,Wunderground v.1.15,2013-01-13 10:23:00,
2013-01-13 05:28:00,53.3,53.0,30.10,NE,49,2.0,4.0,99,0.00,,,0.01,Wunderground v.1.15,2013-01-13 10:28:00,
2013-01-13 05:33:00,53.2,52.9,30.10,NE,49,0.0,1.0,99,0.00,,,0.01,Wunderground v.1.15,2013-01-13 10:33:00,
2013-01-13 05:38:00,53.1,52.8,30.11,NE,49,2.0,3.0,99,0.00,,,0.01,Wunderground v.1.15,2013-01-13 10:38:00,
2013-01-13 05:43:00,53.0,52.5,30.11,NE,49,3.0,4.0,98,0.00,,,0.01,Wunderground v.1.15,2013-01-13 10:43:00,
2013-01-13 05:48:00,52.9,52.4,30.11,NE,49,3.0,5.0,98,0.00,,,0.01,Wunderground v.1.15,2013-01-13 10:48:00,
2013-01-13 05:53:00,52.9,52.4,30.11,NE,49,2.0,5.0,98,0.00,,,0.01,Wunderground v.1.15,2013-01-13 10:53:00,
2013-01-13 05:58:00,52.9,52.4,30.12,NE,49,3.0,5.0,98,0.00,,,0.01,Wunderground v.1.15,2013-01-13 10:58:00,
2013-01-13 06:03:00,52.8,52.3,30.11,NE,49,4.0,4.0,98,0.00,,,0.01,Wunderground v.1.15,2013-01-13 11:03:00,
2013-01-13 06:08:00,52.7,52.4,30.11,NE,49,0.0,5.0,99,0.00,,,0.01,Wunderground v.1.15,2013-01-13 11:08:00,
2013-01-13 06:13:00,52.6,52.3,30.11,NE,49,2.0,4.0,99,0.00,,,0.01,Wunderground v.1.15,2013-01-13 11:13:00,
2013-01-13 06:18:00,52.5,52.2,30.11,NE,49,2.0,4.0,99,0.00,,,0.01,Wunderground v.1.15,2013-01-13 11:18:00,
2013-01-13 06:23:00,52.4,51.9,30.11,NE,49,0.0,3.0,98,0.00,,,0.01,Wunderground v.1.15,2013-01-13 11:23:00,
2013-01-13 06:28:00,52.4,51.9,30.11,NE,49,0.0,3.0,98,0.00,,,0.01,Wunderground v.1.15,2013-01-13 11:28:00,
2013-01-13 06:33:00,52.4,51.9,30.11,NE,49,1.0,2.0,98,0.00,,,0.01,Wunderground v.1.15,2013-01-13 11:33:00,
2013-01-13 06:38:00,52.4,51.9,30.11,NE,49,1.0,3.0,98,0.00,,,0.01,Wunderground v.1.15,2013-01-13 11:38:00,
2013-01-13 06:43:00,52.3,51.8,30.11,NE,49,0.0,2.0,98,0.00,,,0.01,Wunderground v.1.15,2013-01-13 11:43:00,
2013-01-13 06:48:00,52.3,51.8,30.11,NE,49,0.0,3.0,98,0.00,,,0.01,Wunderground v.1.15,2013-01-13 11:48:00,
2013-01-13 06:53:00,52.2,51.7,30.11,NE,49,0.0,3.0,98,0.00,,,0.01,Wunderground v.1.15,2013-01-13 11:53:00,
2013-01-13 06:58:00,52.3,51.8,30.11,NE,49,0.0,3.0,98,0.00,,,0.01,Wunderground v.1.15,2013-01-13 11:58:00,
2013-01-13 07:03:00,52.4,52.1,30.11,NE,49,0.0,4.0,99,0.00,,,0.01,Wunderground v.1.15,2013-01-13 12:03:00,
2013-01-13 07:08:00,52.4,52.1,30.11,NE,49,0.0,4.0,99,0.00,,,0.01,Wunderground v.1.15,2013-01-13 12:08:00,
2013-01-13 07:13:00,52.5,52.2,30.11,NE,49,1.0,3.0,99,0.00,,,0.01,Wunderground v.1.15,2013-01-13 12:13:00,
2013-01-13 07:18:00,52.6,52.3,30.11,NE,49,1.0,4.0,99,0.00,,,0.01,Wunderground v.1.15,2013-01-13 12:18:00,
2013-01-13 07:23:00,52.7,52.4,30.11,NE,49,0.0,3.0,99,0.00,,,0.01,Wunderground v.1.15,2013-01-13 12:23:00,
2013-01-13 07:28:00,52.8,52.5,30.11,NE,49,0.0,3.0,99,0.00,,,0.01,Wunderground v.1.15,2013-01-13 12:28:00,
2013-01-13 07:33:00,53.0,52.7,30.11,NE,49,0.0,3.0,99,0.00,,,0.01,Wunderground v.1.15,2013-01-13 12:33:00,
2013-01-13 07:38:00,53.2,52.9,30.12,NE,49,0.0,3.0,99,0.00,,,0.01,Wunderground v.1.15,2013-01-13 12:38:00,
2013-01-13 07:43:00,53.4,53.1,30.12,NE,49,1.0,1.0,99,0.00,,,0.01,Wunderground v.1.15,2013-01-13 12:43:00,
2013-01-13 07:48:00,53.6,53.3,30.12,NE,49,0.0,2.0,99,0.00,,,0.01,Wunderground v.1.15,2013-01-13 12:48:00,
2013-01-13 07:53:00,53.8,53.5,30.12,NE,49,0.0,0.0,99,0.00,,,0.01,Wunderground v.1.15,2013-01-13 12:53:00,
2013-01-13 07:58:00,54.1,53.8,30.12,NE,49,2.0,2.0,99,0.00,,,0.01,Wunderground v.1.15,2013-01-13 12:58:00,
2013-01-13 08:03:00,54.4,54.1,30.12,NE,49,0.0,2.0,99,0.00,,,0.01,Wunderground v.1.15,2013-01-13 13:03:00,
2013-01-13 08:08:00,54.6,54.3,30.12,NE,49,0.0,2.0,99,0.00,,,0.01,Wunderground v.1.15,2013-01-13 13:08:00,
2013-01-13 08:13:00,54.9,54.6,30.12,NE,49,0.0,0.0,99,0.00,,,0.01,Wunderground v.1.15,2013-01-13 13:13:00,
2013-01-13 08:18:00,55.3,55.0,30.12,NE,49,0.0,3.0,99,0.00,,,0.01,Wunderground v.1.15,2013-01-13 13:18:00,
2013-01-13 08:23:00,55.7,55.4,30.12,NE,49,0.0,2.0,99,0.00,,,0.01,Wunderground v.1.15,2013-01-13 13:23:00,
2013-01-13 08:28:00,55.9,55.6,30.13,NE,49,0.0,2.0,99,0.00,,,0.01,Wunderground v.1.15,2013-01-13 13:28:00,
2013-01-13 08:33:00,56.2,55.9,30.13,NE,49,0.0,0.0,99,0.00,,,0.01,Wunderground v.1.15,2013-01-13 13:33:00,
2013-01-13 08:38:00,56.4,56.1,30.13,NE,49,0.0,0.0,99,0.00,,,0.01,Wunderground v.1.15,2013-01-13 13:38:00,
2013-01-13 08:43:00,56.5,56.2,30.14,NE,49,0.0,0.0,99,0.00,,,0.01,Wunderground v.1.15,2013-01-13 13:43:00,
2013-01-13 08:48:00,56.7,56.4,30.14,NE,49,0.0,0.0,99,0.00,,,0.01,Wunderground v.1.15,2013-01-13 13:48:00,
2013-01-13 08:53:00,56.8,56.5,30.14,NE,49,0.0,0.0,99,0.00,,,0.01,Wunderground v.1.15,2013-01-13 13:53:00,
2013-01-13 08:58:00,55.9,55.6,30.14,NE,49,0.0,0.0,99,0.00,,,0.01,Wunderground v.1.15,2013-01-13 13:58:00,
2013-01-13 09:03:00,55.5,55.2,30.14,NE,49,0.0,0.0,99,0.00,,,0.01,Wunderground v.1.15,2013-01-13 14:03:00,
2013-01-13 09:08:00,55.7,55.4,30.14,NE,49,0.0,0.0,99,0.00,,,0.01,Wunderground v.1.15,2013-01-13 14:08:00,
2013-01-13 09:13:00,56.5,56.2,30.14,NE,49,0.0,0.0,99,0.00,,,0.00,Wunderground v.1.15,2013-01-13 14:13:00,
2013-01-13 09:18:00,56.5,56.2,30.14,NE,49,3.0,3.0,99,0.00,,,0.00,Wunderground v.1.15,2013-01-13 14:18:00,
2013-01-13 09:23:00,56.0,55.7,30.14,NE,49,2.0,3.0,99,0.00,,,0.00,Wunderground v.1.15,2013-01-13 14:23:00,
2013-01-13 09:28:00,55.1,54.5,30.14,NE,49,1.0,3.0,98,0.00,,,0.00,Wunderground v.1.15,2013-01-13 14:28:00,
2013-01-13 09:33:00,54.8,54.2,30.15,NE,49,2.0,3.0,98,0.00,,,0.00,Wunderground v.1.15,2013-01-13 14:33:00,
2013-01-13 09:38:00,54.6,54.0,30.15,NE,49,0.0,3.0,98,0.00,,,0.00,Wunderground v.1.15,2013-01-13 14:38:00,
2013-01-13 09:44:00,54.9,54.6,30.15,NE,49,0.0,2.0,99,0.00,,,0.00,Wunderground v.1.15,2013-01-13 14:44:00,
2013-01-13 09:49:00,54.8,54.5,30.14,NE,49,0.0,2.0,99,0.00,,,0.00,Wunderground v.1.15,2013-01-13 14:49:00,
2013-01-13 09:54:00,55.0,54.7,30.15,NE,49,0.0,0.0,99,0.00,,,0.00,Wunderground v.1.15,2013-01-13 14:54:00,
2013-01-13 09:59:00,54.9,54.6,30.15,NE,49,2.0,3.0,99,0.00,,,0.00,Wunderground v.1.15,2013-01-13 14:59:00,
2013-01-13 10:04:00,54.4,53.8,30.15,NE,49,3.0,4.0,98,0.00,,,0.00,Wunderground v.1.15,2013-01-13 15:04:00,
2013-01-13 10:09:00,54.1,53.5,30.15,NE,49,3.0,4.0,98,0.00,,,0.00,Wunderground v.1.15,2013-01-13 15:09:00,
2013-01-13 10:14:00,54.6,54.3,30.15,NE,49,0.0,3.0,99,0.00,,,0.00,Wunderground v.1.15,2013-01-13 15:14:00,
2013-01-13 10:19:00,54.8,54.5,30.14,NE,49,0.0,3.0,99,0.00,,,0.00,Wunderground v.1.15,2013-01-13 15:19:00,
2013-01-13 10:24:00,55.0,54.7,30.14,NE,49,4.0,4.0,99,0.00,,,0.00,Wunderground v.1.15,2013-01-13 15:24:00,
2013-01-13 10:29:00,54.5,53.9,30.15,NE,49,5.0,6.0,98,0.00,,,0.00,Wunderground v.1.15,2013-01-13 15:29:00,
2013-01-13 10:34:00,54.0,53.4,30.15,NE,49,3.0,4.0,98,0.00,,,0.00,Wunderground v.1.15,2013-01-13 15:34:00,
2013-01-13 10:39:00,54.1,53.5,30.15,NE,49,2.0,4.0,98,0.00,,,0.00,Wunderground v.1.15,2013-01-13 15:39:00,
2013-01-13 10:44:00,54.0,53.4,30.15,NE,49,3.0,4.0,98,0.00,,,0.00,Wunderground v.1.15,2013-01-13 15:44:00,
2013-01-13 10:49:00,54.1,53.5,30.15,NE,49,0.0,4.0,98,0.00,,,0.00,Wunderground v.1.15,2013-01-13 15:49:00,
2013-01-13 10:54:00,54.1,53.5,30.14,NE,49,0.0,3.0,98,0.00,,,0.00,Wunderground v.1.15,2013-01-13 15:54:00,
2013-01-13 10:59:00,54.1,53.5,30.14,NE,49,0.0,3.0,98,0.00,,,0.00,Wunderground v.1.15,2013-01-13 15:59:00,
2013-01-13 11:04:00,54.4,54.1,30.14,NE,49,2.0,2.0,99,0.00,,,0.00,Wunderground v.1.15,2013-01-13 16:04:00,
2013-01-13 11:09:00,54.7,54.4,30.14,NE,49,1.0,2.0,99,0.00,,,0.00,Wunderground v.1.15,2013-01-13 16:09:00,
2013-01-13 11:14:00,54.9,54.6,30.13,NE,49,0.0,3.0,99,0.00,,,0.00,Wunderground v.1.15,2013-01-13 16:14:00,
2013-01-13 11:18:00,54.9,54.6,30.13,NE,49,0.0,3.0,99,0.00,,,0.00,Wunderground v.1.15,2013-01-13 16:18:00,
2013-01-13 11:23:00,55.0,54.7,30.13,NE,49,0.0,1.0,99,0.00,,,0.00,Wunderground v.1.15,2013-01-13 16:23:00,
2013-01-13 11:29:00,55.1,54.8,30.13,NE,49,0.0,1.0,99,0.00,,,0.00,Wunderground v.1.15,2013-01-13 16:29:00,
2013-01-13 11:34:00,55.1,54.8,30.13,NE,49,0.0,0.0,99,0.00,,,0.00,Wunderground v.1.15,2013-01-13 16:34:00,
2013-01-13 11:38:00,55.2,54.9,30.13,NE,49,0.0,0.0,99,0.00,,,0.00,Wunderground v.1.15,2013-01-13 16:38:00,
2013-01-13 11:44:00,55.4,55.1,30.12,NE,49,0.0,0.0,99,0.00,,,0.00,Wunderground v.1.15,2013-01-13 16:44:00,
2013-01-13 11:49:00,55.6,55.3,30.12,NE,49,0.0,0.0,99,0.00,,,0.00,Wunderground v.1.15,2013-01-13 16:49:00,
2013-01-13 11:53:00,55.9,55.6,30.12,NE,49,0.0,0.0,99,0.00,,,0.00,Wunderground v.1.15,2013-01-13 16:53:00,
2013-01-13 11:58:00,56.5,56.2,30.11,NE,49,0.0,0.0,99,0.00,,,0.00,Wunderground v.1.15,2013-01-13 16:58:00,
2013-01-13 12:03:00,57.3,57.0,30.11,NE,49,0.0,0.0,99,0.00,,,0.00,Wunderground v.1.15,2013-01-13 17:03:00,
2013-01-13 12:08:00,58.1,57.8,30.11,NE,49,0.0,0.0,99,0.00,,,0.00,Wunderground v.1.15,2013-01-13 17:08:00,
2013-01-13 12:13:00,59.4,59.1,30.11,NE,49,0.0,3.0,99,0.00,,,0.00,Wunderground v.1.15,2013-01-13 17:13:00,
2013-01-13 12:18:00,61.3,61.0,30.10,NE,49,0.0,4.0,99,0.00,,,0.00,Wunderground v.1.15,2013-01-13 17:18:00,
2013-01-13 12:23:00,62.1,61.8,30.10,NE,49,4.0,5.0,99,0.00,,,0.00,Wunderground v.1.15,2013-01-13 17:23:00,
2013-01-13 12:28:00,62.6,62.3,30.10,NE,49,0.0,5.0,99,0.00,,,0.00,Wunderground v.1.15,2013-01-13 17:28:00,
2013-01-13 12:34:00,63.0,62.7,30.10,NE,49,2.0,2.0,99,0.00,,,0.00,Wunderground v.1.15,2013-01-13 17:34:00,
2013-01-13 12:39:00,63.4,63.1,30.10,NE,49,0.0,3.0,99,0.00,,,0.00,Wunderground v.1.15,2013-01-13 17:39:00,
2013-01-13 12:44:00,63.6,63.3,30.10,NE,49,3.0,5.0,99,0.00,,,0.00,Wunderground v.1.15,2013-01-13 17:44:00,
2013-01-13 12:49:00,63.9,63.6,30.09,NE,49,1.0,5.0,99,0.00,,,0.00,Wunderground v.1.15,2013-01-13 17:49:00,
2013-01-13 12:54:00,64.4,63.8,30.09,NE,49,3.0,5.0,98,0.00,,,0.00,Wunderground v.1.15,2013-01-13 17:54:00,
2013-01-13 12:59:00,65.0,64.1,30.09,NE,49,0.0,5.0,97,0.00,,,0.00,Wunderground v.1.15,2013-01-13 17:59:00,
2013-01-13 13:04:00,65.6,64.4,30.09,NE,49,0.0,4.0,96,0.00,,,0.00,Wunderground v.1.15,2013-01-13 18:04:00,
2013-01-13 13:09:00,66.0,64.5,30.09,NE,49,4.0,4.0,95,0.00,,,0.00,Wunderground v.1.15,2013-01-13 18:09:00,
2013-01-13 13:14:00,66.4,64.9,30.09,NE,49,0.0,4.0,95,0.00,,,0.00,Wunderground v.1.15,2013-01-13 18:14:00,
2013-01-13 13:19:00,66.7,64.9,30.09,NE,49,0.0,4.0,94,0.00,,,0.00,Wunderground v.1.15,2013-01-13 18:19:00,
2013-01-13 13:24:00,67.0,64.9,30.08,NE,49,3.0,5.0,93,0.00,,,0.00,Wunderground v.1.15,2013-01-13 18:24:00,
2013-01-13 13:29:00,67.3,64.9,30.08,NE,49,0.0,5.0,92,0.00,,,0.00,Wunderground v.1.15,2013-01-13 18:29:00,
2013-01-13 13:34:00,67.5,64.8,30.08,NE,49,2.0,4.0,91,0.00,,,0.00,Wunderground v.1.15,2013-01-13 18:34:00,
2013-01-13 13:39:00,67.6,64.6,30.08,NE,49,3.0,5.0,90,0.00,,,0.00,Wunderground v.1.15,2013-01-13 18:39:00,
2013-01-13 13:44:00,67.8,64.8,30.08,NE,49,5.0,6.0,90,0.00,,,0.00,Wunderground v.1.15,2013-01-13 18:44:00,
2013-01-13 13:49:00,67.9,64.5,30.08,NE,49,1.0,6.0,89,0.00,,,0.00,Wunderground v.1.15,2013-01-13 18:49:00,
2013-01-13 13:54:00,68.2,64.5,30.08,NE,49,1.0,6.0,88,0.00,,,0.00,Wunderground v.1.15,2013-01-13 18:54:00,
2013-01-13 13:59:00,68.5,64.8,30.09,NE,49,3.0,6.0,88,0.00,,,0.00,Wunderground v.1.15,2013-01-13 18:59:00,
2013-01-13 14:04:00,68.6,64.6,30.09,NE,49,3.0,5.0,87,0.00,,,0.00,Wunderground v.1.15,2013-01-13 19:04:00,
2013-01-13 14:09:00,68.4,64.0,30.09,NE,49,1.0,5.0,86,0.00,,,0.00,Wunderground v.1.15,2013-01-13 19:09:00,
2013-01-13 14:14:00,68.4,64.0,30.09,NE,49,2.0,4.0,86,0.00,,,0.00,Wunderground v.1.15,2013-01-13 19:14:00,
2013-01-13 14:19:00,68.4,64.0,30.09,NE,49,5.0,5.0,86,0.00,,,0.00,Wunderground v.1.15,2013-01-13 19:19:00,
2013-01-13 14:24:00,67.9,63.6,30.09,NE,49,0.0,5.0,86,0.00,,,0.00,Wunderground v.1.15,2013-01-13 19:24:00,
2013-01-13 14:29:00,67.3,63.0,30.09,NE,49,0.0,7.0,86,0.00,,,0.00,Wunderground v.1.15,2013-01-13 19:29:00,
2013-01-13 14:34:00,67.1,63.1,30.09,NE,49,2.0,6.0,87,0.00,,,0.00,Wunderground v.1.15,2013-01-13 19:34:00,
2013-01-13 14:39:00,67.3,63.3,30.09,NE,49,0.0,6.0,87,0.00,,,0.00,Wunderground v.1.15,2013-01-13 19:39:00,
2013-01-13 14:44:00,67.0,63.0,30.09,NE,50,1.0,8.0,87,0.00,,,0.00,Wunderground v.1.15,2013-01-13 19:44:00,
2013-01-13 14:49:00,66.8,62.8,30.09,NE,51,6.0,8.0,87,0.00,,,0.00,Wunderground v.1.15,2013-01-13 19:49:00,
2013-01-13 14:54:00,66.7,63.0,30.09,NE,56,1.0,7.0,88,0.00,,,0.00,Wunderground v.1.15,2013-01-13 19:54:00,
2013-01-13 14:59:00,66.3,62.6,30.09,South,180,3.0,10.0,88,0.00,,,0.00,Wunderground v.1.15,2013-01-13 19:59:00,
2013-01-13 15:04:00,66.2,62.9,30.09,South,191,3.0,9.0,89,0.00,,,0.00,Wunderground v.1.15,2013-01-13 20:04:00,
2013-01-13 15:09:00,66.3,63.0,30.09,SSW,194,4.0,9.0,89,0.00,,,0.00,Wunderground v.1.15,2013-01-13 20:09:00,
2013-01-13 15:14:00,66.6,63.3,30.09,SSW,194,3.0,6.0,89,0.00,,,0.00,Wunderground v.1.15,2013-01-13 20:14:00,
2013-01-13 15:19:00,66.9,63.6,30.09,SSW,196,0.0,9.0,89,0.00,,,0.00,Wunderground v.1.15,2013-01-13 20:19:00,
2013-01-13 15:24:00,67.2,63.5,30.10,SSW,196,4.0,4.0,88,0.00,,,0.00,Wunderground v.1.15,2013-01-13 20:24:00,
2013-01-13 15:29:00,67.2,63.5,30.09,SSW,194,4.0,8.0,88,0.00,,,0.00,Wunderground v.1.15,2013-01-13 20:29:00,
2013-01-13 15:34:00,67.2,63.5,30.10,SSW,195,1.0,6.0,88,0.00,,,0.00,Wunderground v.1.15,2013-01-13 20:34:00,
2013-01-13 15:39:00,67.0,63.3,30.10,SSW,196,0.0,6.0,88,0.00,,,0.00,Wunderground v.1.15,2013-01-13 20:39:00,
2013-01-13 15:44:00,66.8,63.1,30.10,SSW,196,0.0,7.0,88,0.00,,,0.00,Wunderground v.1.15,2013-01-13 20:44:00,
2013-01-13 15:49:00,66.6,62.9,30.10,SSW,196,4.0,7.0,88,0.00,,,0.00,Wunderground v.1.15,2013-01-13 20:49:00,
2013-01-13 15:54:00,66.5,63.2,30.10,SSW,196,0.0,6.0,89,0.00,,,0.00,Wunderground v.1.15,2013-01-13 20:54:00,
2013-01-13 15:59:00,66.4,63.1,30.10,SSW,196,0.0,6.0,89,0.00,,,0.00,Wunderground v.1.15,2013-01-13 20:59:00,
2013-01-13 16:04:00,66.2,62.9,30.11,SSW,196,3.0,6.0,89,0.00,,,0.00,Wunderground v.1.15,2013-01-13 21:04:00,
2013-01-13 16:09:00,66.0,63.0,30.10,SSW,193,1.0,6.0,90,0.00,,,0.00,Wunderground v.1.15,2013-01-13 21:09:00,
2013-01-13 16:14:00,65.8,62.8,30.10,SSW,192,1.0,6.0,90,0.00,,,0.00,Wunderground v.1.15,2013-01-13 21:14:00,
2013-01-13 16:19:00,65.6,62.6,30.10,SSW,192,2.0,6.0,90,0.00,,,0.00,Wunderground v.1.15,2013-01-13 21:19:00,
2013-01-13 16:24:00,65.4,62.7,30.10,SSW,192,3.0,6.0,91,0.00,,,0.00,Wunderground v.1.15,2013-01-13 21:24:00,
2013-01-13 16:29:00,65.3,62.6,30.10,SSW,192,5.0,6.0,91,0.00,,,0.00,Wunderground v.1.15,2013-01-13 21:29:00,
2013-01-13 16:34:00,65.2,62.8,30.10,SSW,192,0.0,5.0,92,0.00,,,0.00,Wunderground v.1.15,2013-01-13 21:34:00,
2013-01-13 16:39:00,65.1,62.7,30.10,SSW,192,5.0,7.0,92,0.00,,,0.00,Wunderground v.1.15,2013-01-13 21:39:00,
2013-01-13 16:44:00,65.0,62.6,30.10,SSW,192,3.0,5.0,92,0.00,,,0.00,Wunderground v.1.15,2013-01-13 21:44:00,
2013-01-13 16:49:00,64.9,62.5,30.11,SSW,192,0.0,6.0,92,0.00,,,0.00,Wunderground v.1.15,2013-01-13 21:49:00,
2013-01-13 16:54:00,64.7,62.3,30.10,SSW,192,0.0,5.0,92,0.00,,,0.00,Wunderground v.1.15,2013-01-13 21:54:00,
2013-01-13 16:59:00,64.6,62.5,30.10,SSW,192,3.0,6.0,93,0.00,,,0.00,Wunderground v.1.15,2013-01-13 21:59:00,
2013-01-13 17:04:00,64.5,62.4,30.10,SSW,192,1.0,6.0,93,0.00,,,0.00,Wunderground v.1.15,2013-01-13 22:04:00,
2013-01-13 17:09:00,64.5,62.4,30.10,SSW,192,0.0,6.0,93,0.00,,,0.00,Wunderground v.1.15,2013-01-13 22:09:00,
2013-01-13 17:14:00,64.4,62.3,30.10,SSW,192,1.0,5.0,93,0.00,,,0.00,Wunderground v.1.15,2013-01-13 22:14:00,
2013-01-13 17:19:00,64.3,62.2,30.10,SSW,192,0.0,6.0,93,0.00,,,0.00,Wunderground v.1.15,2013-01-13 22:19:00,
2013-01-13 17:24:00,64.3,62.2,30.10,SSW,192,0.0,6.0,93,0.00,,,0.00,Wunderground v.1.15,2013-01-13 22:24:00,
2013-01-13 17:29:00,64.4,62.3,30.10,SSW,192,0.0,6.0,93,0.00,,,0.00,Wunderground v.1.15,2013-01-13 22:29:00,
2013-01-13 17:34:00,64.3,62.2,30.10,South,191,2.0,7.0,93,0.00,,,0.00,Wunderground v.1.15,2013-01-13 22:34:00,
2013-01-13 17:39:00,64.3,62.2,30.10,South,191,3.0,7.0,93,0.00,,,0.00,Wunderground v.1.15,2013-01-13 22:39:00,
2013-01-13 17:44:00,64.4,62.3,30.11,South,191,0.0,5.0,93,0.00,,,0.00,Wunderground v.1.15,2013-01-13 22:44:00,
2013-01-13 17:49:00,64.4,62.3,30.11,South,191,3.0,6.0,93,0.00,,,0.00,Wunderground v.1.15,2013-01-13 22:49:00,
2013-01-13 17:54:00,64.5,62.4,30.11,South,191,3.0,6.0,93,0.00,,,0.00,Wunderground v.1.15,2013-01-13 22:54:00,
2013-01-13 17:59:00,64.5,62.4,30.11,SSW,205,4.0,10.0,93,0.00,,,0.00,Wunderground v.1.15,2013-01-13 22:59:00,
2013-01-13 18:04:00,64.6,62.5,30.11,SSW,206,4.0,7.0,93,0.00,,,0.00,Wunderground v.1.15,2013-01-13 23:04:00,
2013-01-13 18:09:00,64.7,62.3,30.11,SSW,207,0.0,9.0,92,0.00,,,0.00,Wunderground v.1.15,2013-01-13 23:09:00,
2013-01-13 18:14:00,64.7,62.3,30.11,SSW,207,4.0,10.0,92,0.00,,,0.00,Wunderground v.1.15,2013-01-13 23:14:00,
2013-01-13 18:19:00,64.8,62.4,30.11,SSW,207,4.0,11.0,92,0.00,,,0.00,Wunderground v.1.15,2013-01-13 23:19:00,
2013-01-13 18:24:00,64.8,62.4,30.11,SSW,203,2.0,11.0,92,0.00,,,0.00,Wunderground v.1.15,2013-01-13 23:24:00,
2013-01-13 18:29:00,64.8,62.4,30.10,SSW,205,4.0,11.0,92,0.00,,,0.00,Wunderground v.1.15,2013-01-13 23:29:00,
2013-01-13 18:34:00,64.8,62.4,30.11,SSW,210,0.0,7.0,92,0.00,,,0.00,Wunderground v.1.15,2013-01-13 23:34:00,
2013-01-13 18:39:00,64.7,62.3,30.11,SSW,208,5.0,9.0,92,0.00,,,0.00,Wunderground v.1.15,2013-01-13 23:39:00,
2013-01-13 18:44:00,64.7,62.3,30.11,SW,215,5.0,9.0,92,0.00,,,0.00,Wunderground v.1.15,2013-01-13 23:44:00,
2013-01-13 18:49:00,64.7,62.3,30.11,SSW,213,7.0,10.0,92,0.00,,,0.00,Wunderground v.1.15,2013-01-13 23:49:00,
2013-01-13 18:54:00,64.6,62.2,30.12,SSW,207,1.0,11.0,92,0.00,,,0.00,Wunderground v.1.15,2013-01-13 23:54:00,
2013-01-13 18:59:00,64.4,62.0,30.11,SSW,205,3.0,11.0,92,0.00,,,0.00,Wunderground v.1.15,2013-01-13 23:59:00,
2013-01-13 19:04:00,64.2,61.8,30.11,SSW,206,0.0,9.0,92,0.00,,,0.00,Wunderground v.1.15,2013-01-14 00:04:00,
2013-01-13 19:09:00,64.1,62.0,30.10,SSW,208,3.0,10.0,93,0.00,,,0.00,Wunderground v.1.15,2013-01-14 00:09:00,
2013-01-13 19:14:00,64.2,62.1,30.11,SSW,208,3.0,8.0,93,0.00,,,0.00,Wunderground v.1.15,2013-01-14 00:14:00,
2013-01-13 19:19:00,64.3,62.2,30.10,SSW,212,3.0,10.0,93,0.00,,,0.00,Wunderground v.1.15,2013-01-14 00:19:00,
2013-01-13 19:24:00,64.4,62.3,30.10,SSW,212,0.0,5.0,93,0.00,,,0.00,Wunderground v.1.15,2013-01-14 00:24:00,
2013-01-13 19:29:00,64.3,62.2,30.09,SSW,209,0.0,7.0,93,0.00,,,0.00,Wunderground v.1.15,2013-01-14 00:29:00,
2013-01-13 19:34:00,64.3,62.2,30.10,SSW,209,5.0,7.0,93,0.00,,,0.00,Wunderground v.1.15,2013-01-14 00:34:00,
2013-01-13 19:39:00,64.1,62.0,30.09,SSW,210,0.0,7.0,93,0.00,,,0.00,Wunderground v.1.15,2013-01-14 00:39:00,
2013-01-13 19:44:00,64.0,61.9,30.09,SSW,213,0.0,7.0,93,0.00,,,0.00,Wunderground v.1.15,2013-01-14 00:44:00,
2013-01-13 19:49:00,63.9,61.8,30.10,SSW,209,4.0,10.0,93,0.00,,,0.00,Wunderground v.1.15,2013-01-14 00:49:00,
2013-01-13 19:54:00,63.6,61.5,30.09,SSW,208,2.0,6.0,93,0.00,,,0.00,Wunderground v.1.15,2013-01-14 00:54:00,
2013-01-13 19:59:00,63.5,61.4,30.09,SSW,207,3.0,6.0,93,0.00,,,0.00,Wunderground v.1.15,2013-01-14 00:59:00,
2013-01-13 20:04:00,63.3,61.5,30.10,SSW,209,4.0,6.0,94,0.00,,,0.00,Wunderground v.1.15,2013-01-14 01:04:00,
2013-01-13 20:09:00,63.2,61.4,30.10,SSW,208,2.0,6.0,94,0.00,,,0.00,Wunderground v.1.15,2013-01-14 01:09:00,
2013-01-13 20:14:00,63.2,61.4,30.09,SSW,209,1.0,6.0,94,0.00,,,0.00,Wunderground v.1.15,2013-01-14 01:14:00,
2013-01-13 20:19:00,63.4,61.6,30.10,SW,217,2.0,9.0,94,0.00,,,0.00,Wunderground v.1.15,2013-01-14 01:19:00,
2013-01-13 20:24:00,63.7,61.9,30.09,SW,216,3.0,8.0,94,0.00,,,0.00,Wunderground v.1.15,2013-01-14 01:24:00,
2013-01-13 20:29:00,63.9,62.1,30.09,SW,214,5.0,8.0,94,0.00,,,0.00,Wunderground v.1.15,2013-01-14 01:29:00,
2013-01-13 20:34:00,64.0,62.2,30.09,SW,214,0.0,6.0,94,0.00,,,0.00,Wunderground v.1.15,2013-01-14 01:34:00,
2013-01-13 20:39:00,64.1,62.3,30.09,SSW,213,0.0,9.0,94,0.00,,,0.00,Wunderground v.1.15,2013-01-14 01:39:00,
2013-01-13 20:44:00,64.2,62.4,30.09,SSW,213,0.0,6.0,94,0.00,,,0.00,Wunderground v.1.15,2013-01-14 01:44:00,
2013-01-13 20:49:00,64.2,62.4,30.09,SSW,213,0.0,6.0,94,0.00,,,0.00,Wunderground v.1.15,2013-01-14 01:49:00,
2013-01-13 20:54:00,64.1,62.3,30.08,SSW,211,1.0,5.0,94,0.00,,,0.00,Wunderground v.1.15,2013-01-14 01:54:00,
2013-01-13 20:59:00,64.1,62.3,30.08,SSW,211,0.0,5.0,94,0.00,,,0.00,Wunderground v.1.15,2013-01-14 01:59:00,
2013-01-13 21:04:00,64.2,62.4,30.08,SSW,202,0.0,10.0,94,0.00,,,0.00,Wunderground v.1.15,2013-01-14 02:04:00,
2013-01-13 21:09:00,64.3,62.5,30.09,SSW,211,5.0,11.0,94,0.00,,,0.00,Wunderground v.1.15,2013-01-14 02:09:00,
2013-01-13 21:14:00,64.4,62.6,30.08,SSW,209,9.0,9.0,94,0.00,,,0.00,Wunderground v.1.15,2013-01-14 02:14:00,
2013-01-13 21:19:00,64.5,62.4,30.09,SSW,212,3.0,11.0,93,0.00,,,0.00,Wunderground v.1.15,2013-01-14 02:19:00,
2013-01-13 21:24:00,64.6,62.8,30.09,SSW,207,5.0,10.0,94,0.00,,,0.00,Wunderground v.1.15,2013-01-14 02:24:00,
2013-01-13 21:29:00,64.7,62.6,30.09,SSW,209,0.0,10.0,93,0.00,,,0.00,Wunderground v.1.15,2013-01-14 02:29:00,
2013-01-13 21:34:00,64.8,62.7,30.09,SSW,208,6.0,14.0,93,0.00,,,0.00,Wunderground v.1.15,2013-01-14 02:34:00,
2013-01-13 21:39:00,64.8,62.7,30.09,SSW,211,6.0,14.0,93,0.00,,,0.00,Wunderground v.1.15,2013-01-14 02:39:00,
2013-01-13 21:44:00,64.8,62.7,30.09,SSW,200,6.0,14.0,93,0.00,,,0.00,Wunderground v.1.15,2013-01-14 02:44:00,
2013-01-13 21:49:00,64.8,62.4,30.09,SSW,207,3.0,14.0,92,0.00,,,0.00,Wunderground v.1.15,2013-01-14 02:49:00,
2013-01-13 21:54:00,64.9,62.5,30.10,SSW,207,3.0,7.0,92,0.00,,,0.00,Wunderground v.1.15,2013-01-14 02:54:00,
2013-01-13 21:59:00,64.9,62.5,30.10,SSW,209,0.0,12.0,92,0.00,,,0.00,Wunderground v.1.15,2013-01-14 02:59:00,
2013-01-13 22:04:00,64.9,62.5,30.10,SSW,207,6.0,9.0,92,0.00,,,0.00,Wunderground v.1.15,2013-01-14 03:04:00,
2013-01-13 22:09:00,65.0,62.6,30.10,SSW,209,4.0,10.0,92,0.00,,,0.00,Wunderground v.1.15,2013-01-14 03:09:00,
2013-01-13 22:14:00,65.1,62.7,30.10,SSW,207,5.0,11.0,92,0.00,,,0.00,Wunderground v.1.15,2013-01-14 03:14:00,
2013-01-13 22:19:00,65.1,62.7,30.11,SSW,211,10.0,11.0,92,0.00,,,0.00,Wunderground v.1.15,2013-01-14 03:19:00,
2013-01-13 22:24:00,65.2,63.1,30.10,SSW,207,7.0,11.0,93,0.00,,,0.00,Wunderground v.1.15,2013-01-14 03:24:00,
2013-01-13 22:29:00,65.3,63.2,30.11,SW,214,5.0,11.0,93,0.00,,,0.00,Wunderground v.1.15,2013-01-14 03:29:00,
2013-01-13 22:34:00,65.5,63.4,30.11,SSW,211,5.0,11.0,93,0.00,,,0.00,Wunderground v.1.15,2013-01-14 03:34:00,
2013-01-13 22:39:00,65.6,63.2,30.11,SSW,211,9.0,12.0,92,0.00,,,0.00,Wunderground v.1.15,2013-01-14 03:39:00,
2013-01-13 22:44:00,65.6,63.2,30.11,SSW,212,4.0,9.0,92,0.00,,,0.00,Wunderground v.1.15,2013-01-14 03:44:00,
2013-01-13 22:49:00,65.4,63.0,30.12,SSW,212,4.0,10.0,92,0.00,,,0.00,Wunderground v.1.15,2013-01-14 03:49:00,
2013-01-13 22:54:00,65.4,63.0,30.12,SSW,213,0.0,9.0,92,0.00,,,0.00,Wunderground v.1.15,2013-01-14 03:54:00,
2013-01-13 22:59:00,65.2,62.8,30.12,SW,216,10.0,10.0,92,0.00,,,0.00,Wunderground v.1.15,2013-01-14 03:59:00,
2013-01-13 23:04:00,65.0,62.6,30.12,SW,221,2.0,7.0,92,0.00,,,0.00,Wunderground v.1.15,2013-01-14 04:04:00,
2013-01-13 23:09:00,65.0,62.9,30.13,SW,221,1.0,7.0,93,0.00,,,0.00,Wunderground v.1.15,2013-01-14 04:09:00,
2013-01-13 23:14:00,65.2,63.1,30.13,SW,219,0.0,9.0,93,0.00,,,0.00,Wunderground v.1.15,2013-01-14 04:14:00,
2013-01-13 23:19:00,64.9,62.8,30.13,SW,228,3.0,9.0,93,0.00,,,0.00,Wunderground v.1.15,2013-01-14 04:19:00,
2013-01-13 23:24:00,65.0,62.9,30.13,SW,230,4.0,10.0,93,0.00,,,0.00,Wunderground v.1.15,2013-01-14 04:24:00,
2013-01-13 23:29:00,65.1,63.0,30.13,SW,231,0.0,10.0,93,0.00,,,0.00,Wunderground v.1.15,2013-01-14 04:29:00,
2013-01-13 23:34:00,64.9,62.8,30.13,SW,223,4.0,11.0,93,0.00,,,0.00,Wunderground v.1.15,2013-01-14 04:34:00,
2013-01-13 23:39:00,64.9,62.8,30.13,SW,227,2.0,11.0,93,0.00,,,0.00,Wunderground v.1.15,2013-01-14 04:39:00,
2013-01-13 23:44:00,64.8,62.7,30.13,SW,232,4.0,10.0,93,0.00,,,0.00,Wunderground v.1.15,2013-01-14 04:44:00,
2013-01-13 23:49:00,64.8,62.7,30.13,SW,229,3.0,10.0,93,0.00,,,0.00,Wunderground v.1.15,2013-01-14 04:49:00,
2013-01-13 23:54:00,64.9,63.1,30.12,SW,226,1.0,6.0,94,0.00,,,0.00,Wunderground v.1.15,2013-01-14 04:54:00,
2013-01-13 23:59:00,65.0,62.9,30.12,SW,219,2.0,10.0,93,0.00,,,0.00,Wunderground v.1.15,2013-01-14 04:59:00,